Weather History for Williamtown, NW

Change the Weather History Date:

Monday, March 11, 2013

  Actual Average Record
Temperature  
Mean Temperature 70 °F -  
Max Temperature 80 °F - - ()
Min Temperature 61 °F - - ()
Cooling Degree Days 6    
Growing Degree Days 20 (Base 50)    
Moisture  
Dew Point 63 °F    
Average Humidity 77    
Maximum Humidity 95    
Minimum Humidity 46    
Precipitation  
Precipitation 0.00 in - - ()
Sea Level Pressure  
Sea Level Pressure 30.10 in    
Wind  
Wind Speed 5 mph ()    
Max Wind Speed 14 mph    
Max Gust Speed -    
Visibility 6.9 miles    
Events Rain    
T = Trace of Precipitation, MM = Missing Value Source: Averaged Metar Reports

Daily Weather History Graph

Daily Weather History Graph

Search for Another Location

Airport:

Trip Planner

Search our weather history database for the weather conditions in past years. The results will help you decide how hot, cold, wet, or windy it might be!

Date:

Astronomy

Mar. 11, 2013 Rise Set
Actual Time 6:49 AM AEDT 7:15 PM AEDT
Civil Twilight 6:24 AM AEDT 7:40 PM AEDT
Nautical Twilight 5:55 AM AEDT 8:09 PM AEDT
Astronomical Twilight 5:25 AM AEDT 8:39 PM AEDT
Moon 5:56 AM AEDT (3/11) 6:35 PM AEDT (3/11)
Length of Visible Light 13h 16m
Length of Day
12h 26m
Waning Crescent, 1% of the Moon is Illuminated
Mar 11
Waning Crescent
Mar 12
New
Mar 20
First Quarter
Mar 27
Full
Apr 3
Last Quarter

Hourly Weather History & Observations

Time (AEDT) Temp. Heat Index Dew Point Humidity Pressure Visibility Wind Dir Wind Speed Gust Speed Precip Events Conditions
12:00 AM 68 °F - 63 °F 80% 30.10 in - East 4.6 mph - -  
12:00 AM 68.0 °F - 62.6 °F 83% 30.09 in 6.2 mi East 4.6 mph - N/A   Unknown
12:30 AM 66.2 °F - 62.6 °F 88% 30.09 in 6.2 mi East 4.6 mph - N/A   Unknown
1:00 AM 66.2 °F - 62.6 °F 88% 30.06 in 6.2 mi SE 3.5 mph - N/A   Unknown
1:30 AM 64.4 °F - 62.6 °F 94% 30.06 in 6.2 mi East 4.6 mph - N/A   Unknown
2:00 AM 65 °F - 63 °F 92% 30.08 in - ENE 4.6 mph - -  
2:00 AM 64.4 °F - 62.6 °F 94% 30.06 in 6.2 mi ENE 4.6 mph - N/A   Scattered Clouds
2:30 AM 64.4 °F - 60.8 °F 88% 30.06 in 6.2 mi East 2.3 mph - N/A   Unknown
3:00 AM 63 °F - 61 °F 92% 30.07 in - East 3.5 mph - -  
3:00 AM 62.6 °F - 60.8 °F 94% 30.06 in 6.2 mi East 3.5 mph - N/A   Unknown
3:30 AM 64.4 °F - 62.6 °F 94% 30.04 in 6.2 mi NE 4.6 mph - N/A   Unknown
4:00 AM 62.6 °F - 60.8 °F 94% 30.06 in 6.2 mi Calm Calm - N/A   Unknown
4:30 AM 62.6 °F - 60.8 °F 94% 30.06 in 6.2 mi Calm Calm - N/A   Unknown
5:00 AM 64 °F - 62 °F 90% 30.07 in - ENE 2.3 mph - -  
5:00 AM 64.4 °F - 62.6 °F 94% 30.06 in 6.2 mi ENE 2.3 mph - N/A   Scattered Clouds
5:30 AM 64.4 °F - 62.6 °F 94% 30.06 in 6.2 mi ENE 4.6 mph - N/A   Mostly Cloudy
6:00 AM 66 °F - 65 °F 95% 30.08 in 12 mi ENE 4.6 mph - -   Partly Cloudy
6:00 AM 66.2 °F - 64.4 °F 94% 30.06 in 6.2 mi ENE 4.6 mph - N/A   Mostly Cloudy
6:30 AM 66.2 °F - 64.4 °F 94% 30.06 in 6.2 mi ENE 3.5 mph - N/A   Mostly Cloudy
7:00 AM 66.2 °F - 64.4 °F 94% 30.09 in - ENE 2.3 mph - N/A   Clear
7:30 AM 66.2 °F - 64.4 °F 94% 30.09 in - Calm Calm - N/A   Clear
8:00 AM 69 °F - 67 °F 92% 30.12 in - Calm Calm - -  
8:00 AM 69.8 °F - 68.0 °F 94% 30.09 in - Calm Calm - N/A   Clear
8:30 AM 71.6 °F - 68.0 °F 88% 30.12 in - Calm Calm - N/A   Clear
9:00 AM 75.2 °F - 66.2 °F 73% 30.12 in 6.2 mi ESE 1.2 mph - N/A   Scattered Clouds
9:30 AM 75.2 °F - 66.2 °F 73% 30.12 in 6.2 mi SE 1.2 mph - N/A   Scattered Clouds
10:00 AM 77.0 °F - 64.4 °F 65% 30.12 in 6.2 mi East 5.8 mph - N/A   Scattered Clouds
10:30 AM 77.0 °F - 62.6 °F 61% 30.12 in 6.2 mi ESE 8.1 mph - N/A   Scattered Clouds
11:00 AM 77 °F - 63 °F 53% 30.15 in - East 8.1 mph - -  
11:00 AM 77.0 °F - 62.6 °F 61% 30.12 in 6.2 mi East 8.1 mph - N/A   Mostly Cloudy
11:30 AM 77.0 °F - 64.4 °F 65% 30.12 in 6.2 mi East 6.9 mph - N/A   Mostly Cloudy
12:00 PM 74 °F - 65 °F 67% 30.15 in 16 mi East 12.7 mph - - Rain Light Rain Showers
12:00 PM 75.2 °F - 66.2 °F 73% 30.12 in 6.2 mi East 12.7 mph - N/A Rain Light Rain Showers
12:30 PM 75.2 °F - 64.4 °F 69% 30.12 in 6.2 mi East 9.2 mph - N/A   Scattered Clouds
1:00 PM 77.0 °F - 64.4 °F 65% 30.12 in 6.2 mi ESE 9.2 mph - N/A   Scattered Clouds
1:30 PM 77.0 °F - 62.6 °F 61% 30.12 in 6.2 mi East 8.1 mph - N/A   Scattered Clouds
2:00 PM 80.6 °F 81.1 °F 59.0 °F 48% 30.09 in 6.2 mi NE 8.1 mph - N/A   Scattered Clouds
2:30 PM 78.8 °F - 60.8 °F 54% 30.09 in 6.2 mi East 5.8 mph - N/A   Mostly Cloudy
3:00 PM 79 °F - 62 °F 46% 30.10 in 19 mi ESE 13.8 mph - -   Partly Cloudy
3:00 PM 78.8 °F - 62.6 °F 57% 30.09 in 6.2 mi ESE 13.8 mph - N/A   Mostly Cloudy
3:30 PM 77.0 °F - 60.8 °F 57% 30.09 in 6.2 mi ESE 13.8 mph - N/A   Mostly Cloudy
4:00 PM 77.0 °F - 60.8 °F 57% 30.06 in 6.2 mi SE 12.7 mph - N/A   Mostly Cloudy
4:30 PM 77.0 °F - 62.6 °F 61% 30.06 in 6.2 mi East 13.8 mph - N/A   Mostly Cloudy
5:00 PM 76 °F - 65 °F 60% 30.09 in - East 11.5 mph - -  
5:00 PM 77.0 °F - 64.4 °F 65% 30.06 in 6.2 mi East 11.5 mph - N/A   Mostly Cloudy
5:30 PM 75.2 °F - 64.4 °F 69% 30.06 in 6.2 mi East 11.5 mph - N/A   Mostly Cloudy
6:00 PM 75 °F - 64 °F 62% 30.10 in - East 12.7 mph - -   Overcast
6:00 PM 75.2 °F - 64.4 °F 69% 30.09 in 6.2 mi East 12.7 mph - N/A   Scattered Clouds
7:00 PM 73.4 °F - 62.6 °F 69% 30.09 in 6.2 mi ENE 10.4 mph - N/A   Scattered Clouds
7:30 PM 73.4 °F - 62.6 °F 69% 30.09 in 6.2 mi ENE 6.9 mph - N/A   Scattered Clouds
8:00 PM 72 °F - 62 °F 64% 30.12 in - ENE 6.9 mph - -  
8:00 PM 73.4 °F - 62.6 °F 69% 30.12 in - ENE 6.9 mph - N/A   Clear
8:30 PM 71.6 °F - 62.6 °F 73% 30.12 in - East 5.8 mph - N/A   Clear
9:00 PM 71 °F - 63 °F 70% 30.14 in - ENE 5.8 mph - -   Overcast
9:00 PM 71.6 °F - 62.6 °F 73% 30.12 in - ENE 5.8 mph - N/A   Clear
9:30 PM 69.8 °F - 62.6 °F 78% 30.12 in 6.2 mi NE 5.8 mph - N/A   Overcast
10:00 PM 69.8 °F - 62.6 °F 78% 30.15 in 6.2 mi ENE 4.6 mph - N/A   Overcast
10:30 PM 68.0 °F - 64.4 °F 88% 30.15 in 6.2 mi East 3.5 mph - N/A   Scattered Clouds
11:00 PM 68 °F - 64 °F 82% 30.15 in - East 3.5 mph - -  
11:00 PM 68.0 °F - 64.4 °F 88% 30.15 in 6.2 mi East 3.5 mph - N/A   Scattered Clouds
11:30 PM 66.2 °F - 64.4 °F 94% 30.15 in 6.2 mi NNE 3.5 mph - N/A   Mostly Cloudy